Regional Weather Roundup
Issued by NWS Glasgow, MT

Home | Current Version | Previous Version | Text Only | Print | Product List | Glossary On
Versions: 1 2 3 4 5 6 7 8 9 10 11 12 13 14 15 16 17 18 19 20 21 22 23 24 25 26 27
000
ASUS45 KGGW 250115
RWRGGW
HOURLY REGIONAL WEATHER ROUNDUP FOR NORTHEAST MONTANA
NATIONAL WEATHER SERVICE GLASGOW MONTANA
700 PM MDT WED MAY 24 2017

NOTE: "FAIR" INDICATES FEW OR NO CLOUDS BELOW 12,000 FEET WITH NO
SIGNIFICANT WEATHER AND/OR OBSTRUCTIONS TO VISISBILITY.

NORTHEAST MONTANA


CITY           SKY/WX    TMP DP  RH WIND       PRES   REMARKS
GLASGOW        MOSUNNY   68  15  13 NW28G38   29.32R
PLENTYWOOD       N/A     66  47  50 SE7G23      N/A
WOLF POINT     MOSUNNY   71  38  29 S7        29.29R
JORDAN           N/A     71  13  10 NW18G32   29.32R
WINNETT          N/A     67  15  13 W20G31      N/A
SIDNEY         CLOUDY    62  54  74 N6        29.32F
GLENDIVE       PTSUNNY   63  52  67 N14       29.34S
MALTA            N/A     64  19  17 W23G36      N/A

FORT PECK REPORTS


CITY           SKY/WX    TMP DP  RH WIND       PRES   REMARKS
FORT PECK        N/A     69  22  16 W22G37      N/A
THE PINES        N/A     70  14  11 NW3G13      N/A

SOUTHEAST MONTANA


CITY           SKY/WX    TMP DP  RH WIND       PRES   REMARKS
BILLINGS       CLOUDY    66  23  19 N10       29.40F
MILES CITY     CLOUDY    70  31  23 N20       29.36R
BAKER          LGT RAIN  61  57  87 E12       29.29F
LIVINGSTON     CLOUDY    64  18  17 W22G29    29.47R

CENTRAL MONTANA


CITY           SKY/WX    TMP DP  RH WIND       PRES   REMARKS
HAVRE          MOSUNNY   62  19  19 W29G43    29.35R
LEWISTOWN      SUNNY     58  17  20 NW36G44   29.43R
GREAT FALLS    CLOUDY    58  19  22 W25G36    29.49R
CUT BANK       CLOUDY    51  22  31 W32G45    29.44R
HELENA         MOSUNNY   60  17  18 W28G36    29.56R
BUTTE          SUNNY     53  13  20 NW25G35   29.61R
BOZEMAN        SUNNY     62  14  15 W26G36    29.52R

WESTERN MONTANA


CITY           SKY/WX    TMP DP  RH WIND       PRES   REMARKS
MISSOULA       PTSUNNY   56  24  29 W20       29.66R
KALISPELL      NOT AVBL

NORTH DAKOTA


CITY           SKY/WX    TMP DP  RH WIND       PRES   REMARKS
WILLISTON      LGT RAIN  60  56  86 NW6       29.34R FOG
DICKINSON      PTSUNNY   67  36  31 S20       29.33R
MINOT          PTSUNNY   69  36  29 S18G35    29.37R
BISMARCK       SUNNY     68  40  35 S18G28    29.42F

SOUTHERN SASKATCHEWAN


CITY           SKY/WX    TMP DP  RH WIND       PRES   REMARKS
REGINA         PTSUNNY   64  39  39 W9        29.25R
ESTEVAN        CLOUDY    61  48  63 SE9G17    29.29F
SWIFT CURRENT  PTSUNNY   54  34  47 W18G24    29.23R





USA.gov is the U.S. government's official web portal to all federal, state and local government web resources and services.